Location: Rancho Del Sol Observatory
(38.7214°N, 120.6350°W)
Time: 23:25:16
(UTC-08:00)

Courier 1B Rocket - Pass Details

Date: 29 January 2020
Orbit: 920 x 1202 km, 28.2° (Epoch: 20 February)

Event Time Altitude Azimuth Distance (km) Brightness Sun altitude
Rises 15:11:09 0° 259° (W) 3,825 9.0 20.1°
Reaches altitude 10° 15:15:29 10° 235° (SW) 2,801 9.5 19.5°
Maximum altitude 15:18:40 14° 207° (SSW) 2,483 8.9 19.0°
Drops below altitude 10° 15:21:47 10° 178° (S) 2,707 8.1 18.6°
Sets 15:25:50 0° 153° (SSE) 3,602 8.2 18.0°
